Regional Weather Roundup
Issued by NWS

Home | Current Version | Previous Version | Graphics & Text | Print | Product List | Glossary On
Versions: 1 2 3 4 5 6 7 8 9 10 11 12 13 14 15 16 17 18 19 20 21 22 23 24 25 26 27 28 29 30 31 32 33 34 35 36 37 38 39 40 41 42 43 44 45 46 47 48 49 50
000
ASUS45 KABQ 251001
RWRNM
NEW MEXICO REGIONAL WEATHER ROUNDUP
NATIONAL WEATHER SERVICE ALBUQUERQUE NM
400 AM MDT MON MAY 25 2015

NOTE: "FAIR" MEANS FEW OR NO CLOUDS BELOW 12,000 FEET AGL WITH NO
       SIGNIFICANT WEATHER OR OBSTRUCTIONS TO VISION.

      THIS PRODUCT IS RELEASED AS TWO VERSIONS.  ONE VERSION NEAR
      THE TOP OF THE HOUR CONTAINING PRELIMINARY DATA FROM ALBUQUERQUE
      AND OTHER STATIONS.  A FINAL VERSION WITH ADDITIONAL DATA IS
      ISSUED ABOUT 10 MINUTES AFTER THE HOUR.

NMZ501-503-504-510>518-251100-
NORTHWEST PLATEAU/NORTHCENTRAL MOUNTAINS

CITY           SKY/WX    TMP DP  RH WIND       PRES   REMARKS
FARMINGTON     MOCLDY    46  43  89 N7        29.97R
SANTA FE       CLEAR     44  39  82 E3        29.99F
TAOS           CLOUDY    43  32  65 S3        30.03S

$$
NMZ402-403-502-505>509-251100-
WESTCENTRAL MOUNTAINS/SOUTHWEST MOUNTAINS

CITY           SKY/WX    TMP DP  RH WIND       PRES   REMARKS
GALLUP         PTCLDY    41  36  82 CALM      30.03F
GRANTS         CLEAR     38  35  90 CALM      30.04S
SILVER CITY    CLEAR     46  30  53 NW12      30.03R

$$
NMZ407-409-411-412-251100-
SOUTHERN DESERTS

CITY           SKY/WX    TMP DP  RH WIND       PRES   REMARKS
LORDSBURG      FAIR      50  28  43 W3        29.99R
DEMING         CLEAR     53  32  44 W8        29.98R
ALAMOGORDO     CLEAR     59  34  38 N8        29.94R
T OR C         CLEAR     54  36  50 CALM      29.97R

$$
NMZ519>523-251100-
CENTRAL VALLEYS/CENTRAL HIGHLANDS

CITY           SKY/WX    TMP DP  RH WIND       PRES   REMARKS
ALBUQUERQUE    PTCLDY    51  47  86 CALM      29.99R
DOUBLE EAGLE   CLEAR     44  42  95 CALM      30.01R
MORIARTY ARPT  FAIR      46  39  78 W3        30.00S
CLINES CORNERS MOCLDY    43  38  82 NW10      29.98F
BELEN          FAIR      48  42  81 W5        29.99R
SOCORRO        NOT AVBL

$$
NMZ524>526-539-540-251100-
SOUTHCENTRAL MOUNTAINS

CITY           SKY/WX    TMP DP  RH WIND       PRES   REMARKS
RUIDOSO        NOT AVBL

$$
NMZ527>531-251100-
NORTHEAST HIGHLANDS/NORTHEAST PLAINS

CITY           SKY/WX    TMP DP  RH WIND       PRES   REMARKS
LAS VEGAS      PTCLDY    43  35  73 SW9       29.97F
RATON          MOCLDY    40  35  83 N7        29.92R
CLAYTON        CLEAR     46  39  76 SW3       29.87R

$$
NMZ532>537-251100-
EASTCENTRAL PLAINS

CITY           SKY/WX    TMP DP  RH WIND       PRES   REMARKS
TUCUMCARI      PTCLDY    49  44  83 SE8       29.86R
CANNON AFB     NOT AVBL
CLOVIS AIRPORT CLEAR     52  43  71 NW10      29.89F

$$
NMZ028-029-538-251100-
SOUTHEAST PLAINS

CITY           SKY/WX    TMP DP  RH WIND       PRES   REMARKS
ROSWELL        CLOUDY    63  37  38 N3        29.89R
ARTESIA        CLOUDY    66  34  30 NW14      29.91R
CARLSBAD       CLOUDY    71  28  20 W15       29.85R
HOBBS          TSTM      64  52  63 S17       29.91R


$$


USA.gov is the U.S. government's official web portal to all federal, state and local government web resources and services.